sat.trackr.live / text

‹ back to catalog

STARLINK-37998

NORAD 69679 · 2026-145C

PAYLOAD ACTIVE UNKNOWN

§ Identity

Operator
Country
US
Launch date
2026-06-25
Launch site
AFWTR
Launch vehicle
Mass (kg)
RCS (m²)

Purposes: comms

External: N2YO · Heavens-Above · Gunter

§ Orbital elements

Epoch: 2026-09-19T08:09:50.479776Z

Period
93.91 min
Inclination
97.2851°
Eccentricity
0.0001952
Mean motion
15.33450412 rev/d
Perigee alt
464.2 km
Apogee alt
466.9 km
Semi-major
6,843.7 km
B*
3.5228e-4
RAAN
108.9957°
Arg perigee
88.2197°
Mean anomaly
271.9269°
Rev number
1,336

§ Raw data

STARLINK-379981 69679U 26145C   26262.34016759  .00011317  00000+0  35228-3 0  99932 69679  97.2851 108.9957 0001952  88.2197 271.9269 15.33450412 13369

JSON: /api/v1/satellites/69679 · /tle

For live sub-satellite position, see the globe view (requires WebGL).

§ Visibility from observer

Set your observer location to see the next 7 days of passes ≥ 10°. The values pass through the URL so the page stays shareable.

No JS? Fill the form by hand. The geolocation button needs JavaScript.